Regional Weather Roundup
Issued by NWS

Home | Current Version | Previous Version | Text Only | Print | Product List | Glossary On
Versions: 1 2 3 4 5 6 7 8 9 10 11 12 13 14 15 16 17 18 19 20 21 22 23 24 25 26 27 28 29 30 31 32 33 34 35 36 37 38 39 40 41 42 43 44 45 46 47 48 49 50
000
ASUS43 KMPX 282310
RWRMN
WEATHER ROUNDUP FOR MINNESOTA
NATIONAL WEATHER SERVICE TWIN CITIES/CHANHASSEN MN
500 PM CST SUN FEB 28 2021


NOTE: "FAIR" INDICATES FEW OR NO CLOUDS BELOW 12,000 FEET WITH NO
SIGNIFICANT WEATHER AND/OR OBSTRUCTIONS TO VISIBILITY. N/A MEANS
CURRENT SKY AND/OR WEATHER CONDITIONS ARE NOT AVAILABLE.

MNZ060>063-068>070-010000-
   Twin Cities Metro

CITY           SKY/WX    TMP DP  RH WIND       PRES   REMARKS
TWIN CITIES    CLEAR     28  16  60 W18       29.95R WCI  15
ST PAUL        CLEAR     31  16  54 W16G25    29.95R WCI  20
CRYSTAL        CLEAR     27  14  58 W15G24    29.94R WCI  15
BLAINE         CLEAR     30  16  55 W18G29    29.93R WCI  18
LAKEVILLE      CLEAR     25  16  68 W15       29.95R WCI  12
EDEN PRAIRIE   CLEAR     26  13  57 W10G24    29.95R WCI  16
SOUTH ST PAUL  CLEAR     31  17  57 W9        29.94R WCI  23
LAKE ELMO      FAIR      28  18  64 MISG      29.92S
$$
MNZ001>005-007-008-013>017-022>024-027-028-010000-
   Northwest Minnesota

CITY           SKY/WX    TMP DP  RH WIND       PRES   REMARKS
BEMIDJI        CLOUDY    15   7  71 NW18      29.95R WCI  -2
HALLOCK        MOSUNNY   14   3  62 N13       30.05R WCI   0
ROSEAU         PTCLDY    18  -2  41 NW7       29.99R WCI   8
WARROAD        PTCLDY    14   1  57 NW8       29.98R WCI   3
THIEF RVR FALL PTSUNNY   14   5  67 NW13      30.03R WCI   0
CROOKSTON      PTSUNNY   16   5  62 N13       30.05R WCI   2
FOSSTON        MOCLDY    12   5  73 NW14      30.00R WCI  -3
DETROIT LAKES  PTSUNNY   18  10  73 NW12      29.98F WCI   5
MOORHEAD       PTSUNNY   23   9  54 NW12      30.05R WCI  12
PARK RAPIDS    CLEAR     18   7  62 NW17G25   29.94R WCI   3
MAHNOMEN       FAIR      17   8  67 NW16      30.00R WCI   2
$$
MNZ006-009>011-018-025>026-010000-
   North Central Minnesota

CITY           SKY/WX    TMP DP  RH WIND       PRES   REMARKS
BAUDETTE       MOCLDY    13   2  61 NW16      29.95R WCI  -3
FLAG ISLAND    PTCLDY    12   0  57 NW13      29.95R WCI  -3
INTL FALLS     MOCLDY    12   0  58 NW10G24   29.91R WCI  -1
WASKISH        MOCLDY    16   3  57 NW10      29.95S WCI   3
BIG FORK       CLEAR     18   1  49 NW3       29.96R
LONGVILLE      CLEAR     18   5  57 NW12G18   29.94R WCI   5
GRAND RAPIDS   PTCLDY    19   6  57 NW13      29.92R WCI   6
CRANE LAKE     CLOUDY    14   1  57 N14G21    29.92R WCI  -1
ORR            MOCLDY    16   1  53 NW12G23   29.87R WCI   3
COOK           CLOUDY    16   3  57 NW12G18   29.88R WCI   3
WALKER         CLEAR     17   6  61 W10G17    29.94R WCI   5
$$
MNZ012-019>021-037-010000-
   Northeast Minnesota

CITY           SKY/WX    TMP DP  RH WIND       PRES   REMARKS
DULUTH         CLEAR     24   7  48 NW18G30   29.81R WCI  10
ELY            CLEAR     18   3  53 NW14G24   29.83R WCI   4
HIBBING        CLEAR     19   6  57 NW23      29.86R WCI   2
EVELETH        CLEAR     20   5  51 NW16      29.86R WCI   6
DULUTH HARBOR  CLEAR     27  12  54 NW18      29.86R WCI  13
TWO HARBORS    CLEAR     27   9  46 NW14G21   29.80R WCI  15
SILVER BAY     CLEAR     25   5  42 W6G17     29.78R WCI  18
GRAND MARAIS     N/A     29  10  45 MISG      29.74R
G MARAIS ARPRT CLEAR     21   7  53 W12G24    29.66R WCI   9
$$
MNZ029>031-032-039>041-046>048-054>057-064-010000-
   West Central Minnesota

CITY           SKY/WX    TMP DP  RH WIND       PRES   REMARKS
FERGUS FALLS   SUNNY     21  12  68 NW12      29.98S WCI   9
WHEATON        SUNNY     27  10  50 NW10      30.05S WCI  17
MORRIS         SUNNY     25  10  54 NW15      30.03R WCI  12
ALEXANDRIA     SUNNY     20  11  68 W14       29.99R WCI   7
ELBOW LAKE     FAIR      22  13  70 W12       30.02R WCI  10
WADENA         SUNNY     18   9  68 W9        29.97S WCI   6
GLENWOOD       SUNNY     21  14  73 W15       30.00R WCI   8
APPLETON       SUNNY     28  14  54 NW8       30.03S WCI  20
BENSON         SUNNY     25  16  68 N10       30.04R WCI  15
ORTONVILLE     SUNNY     28  12  50 W10       30.03S WCI  19
MADISON        SUNNY     28  18  64 NW5       30.05S WCI  23
WILLMAR        FAIR      23  16  74 NW12      30.05R WCI  12
$$
MNZ033>034-036-042>043-049>051-058-059-010000-
   Central Minnesota

CITY           SKY/WX    TMP DP  RH WIND       PRES   REMARKS
ST CLOUD       CLEAR     23   9  55 W15       29.97R WCI  10
SAUK CENTRE      N/A     21  10  63 W10G16    30.00R WCI   9
PAYNESVILLE    SUNNY     21  14  73 W10G16    30.01R WCI  10
AITKIN         CLEAR     23   7  50 NW8       29.91R WCI  14
PINE RIVER     CLEAR     23   9  54 NW8       29.97R WCI  14
BRAINERD       CLEAR     24   6  46 W16       29.94R WCI  11
STAPLES        CLEAR     19  10  68 W10       29.97R WCI   8
LONG PRAIRIE   FAIR      21  10  63 W10       29.98R HAZE    WCI  10
LITTLE FALLS   CLEAR     23   3  42 W15G22    29.98R WCI  10
CAMP RIPLEY    FAIR      20   7  55 W18       29.97R WCI   5
LITCHFIELD     SUNNY     21  16  79 NW12      30.00S WCI   9
BUFFALO        CLEAR     22  13  66 MISG      29.99R
HUTCHINSON     MOSUNNY   22  15  76 W12       30.02R WCI  10
$$
MNZ037-044-045-052-053-010000-
   East Central Minnesota

CITY           SKY/WX    TMP DP  RH WIND       PRES   REMARKS
PRINCETON      CLEAR     25  10  54 W17G23    29.94R WCI  11
MORA           CLEAR     30  10  43 NW14      29.92R WCI  20
CAMBRIDGE      CLEAR     27  12  54 W13       29.93R WCI  16
RUSH CITY      CLEAR     29  12  48 W9        29.91R WCI  21
MOOSE LAKE     CLEAR     28   9  43 W12G18    29.87R WCI  18
HINCKLEY       CLEAR     30   9  40 NW13G18   29.89R WCI  20
CLOQUET        CLEAR     23   9  54 W15       29.83R WCI  10
MCGREGOR       CLEAR     25   9  50 W14       29.90R WCI  13
$$
MNZ071>073-080-081-089-090-097-098-010000-
   Southwest Minnesota

CITY           SKY/WX    TMP DP  RH WIND       PRES   REMARKS
MONTEVIDEO     SUNNY     25  12  58 NW7       30.04S WCI  17
GRANITE FALLS  SUNNY     24  17  74 W8        30.06R HAZE    WCI  15
CANBY          SUNNY     28  16  60 NW10      30.05S WCI  18
MARSHALL       SUNNY     25  15  66 W10       30.05S WCI  15
REDWOOD FALLS  SUNNY     22  13  68 W14       30.04R WCI   9
OLIVIA         SUNNY     21  16  79 NW8       30.03R WCI  12
PIPESTONE      SUNNY     21  16  79 NW12      30.04R WCI   9
WINDOM         SUNNY     23  16  74 W17       30.02S WCI   9
WORTHINGTON    SUNNY     23  17  78 W15       30.04S WCI  10
JACKSON        SUNNY     27  18  69 NW15      30.03R WCI  15
TRACY          SUNNY     24  13  63 W8        30.03S WCI  15
SLAYTON        SUNNY     22  14  72 W13       30.04S WCI  10
$$
MNZ065>067-074>077-082>085-091>093-010000-
   South Central Minnesota

CITY           SKY/WX    TMP DP  RH WIND       PRES   REMARKS
MANKATO        SUNNY     22  17  81 NW17      30.02R WCI   8
NEW ULM        SUNNY     21  12  68 NW13G22   30.02S WCI   9
ST JAMES       SUNNY     21  18  86 W22       30.03R WCI   5
FAIRMONT       SUNNY     24  17  74 NW21      30.03R WCI   9
GLENCOE        CLEAR     22  15  75 W15       29.99S WCI   8
FARIBAULT        N/A     25  18  74 W12       29.98R WCI  14
OWATONNA       CLEAR     23  18  80 W18       29.97R WCI   9
WASECA         CLEAR     23  18  80 W18G24    30.00S WCI   9
ALBERT LEA     CLEAR     25  19  80 NW15G22   29.97R WCI  12
$$
MNZ078>079-086>088-094>096-010000-
   Southeast Minnesota

CITY           SKY/WX    TMP DP  RH WIND       PRES   REMARKS
ROCHESTER      PTCLDY    26  21  81 NW22      29.92R WCI  12
RED WING       CLEAR     34  19  55 NW14G23   29.91R WCI  24
STANTON        CLEAR     27  18  69 W17G23    29.95R WCI  14
DODGE CENTER   CLEAR     25  19  80 W18G26    29.93R WCI  11
WINONA         PTCLDY    34  28  80 W12G17    29.91R WCI  25
PRESTON        CLEAR     29  23  79 NW17      29.91R WCI  16
$$
ABBREVIATIONS USED IN REMARKS
   TC - TEMPERATURES IN CELSIUS
  WCI - WIND CHILL INDEX
   HX - HEAT INDEX
  VSB - VISIBILITY
$$




USA.gov is the U.S. government's official web portal to all federal, state and local government web resources and services.